Year,Month,Day,Hour,Minute,Value (Times are PST for temperature in C)
2015,07,21,00,00,17.90
2015,07,21,00,01,17.90
2015,07,21,00,02,17.90
2015,07,21,00,03,17.90
2015,07,21,00,04,17.90
2015,07,21,00,05,17.90
2015,07,21,00,06,17.80
2015,07,21,00,07,17.80
2015,07,21,00,08,17.80
2015,07,21,00,09,17.80
2015,07,21,00,10,17.80
2015,07,21,00,11,17.90
2015,07,21,00,12,17.90
2015,07,21,00,13,17.90
2015,07,21,00,14,17.90
2015,07,21,00,15,17.90
2015,07,21,00,16,17.90
2015,07,21,00,17,17.90
2015,07,21,00,18,17.90
2015,07,21,00,19,17.80
2015,07,21,00,20,17.80
2015,07,21,00,21,17.80
2015,07,21,00,22,17.80
2015,07,21,00,23,17.80
2015,07,21,00,24,17.80
2015,07,21,00,25,17.80
2015,07,21,00,26,17.80
2015,07,21,00,27,17.80
2015,07,21,00,28,17.80
2015,07,21,00,29,17.80
2015,07,21,00,30,17.80
2015,07,21,00,31,17.80
2015,07,21,00,32,17.80
2015,07,21,00,33,17.80
2015,07,21,00,34,17.80
2015,07,21,00,35,17.80
2015,07,21,00,36,17.80
2015,07,21,00,37,17.80
2015,07,21,00,38,17.80
2015,07,21,00,39,17.80
2015,07,21,00,40,17.80
2015,07,21,00,41,17.80
2015,07,21,00,42,17.80
2015,07,21,00,43,17.80
2015,07,21,00,44,17.80
2015,07,21,00,45,17.80
2015,07,21,00,46,17.80
2015,07,21,00,47,17.80
2015,07,21,00,48,17.80
2015,07,21,00,49,17.80
2015,07,21,00,50,17.80
2015,07,21,00,51,17.80
2015,07,21,00,52,17.80
2015,07,21,00,53,17.80
2015,07,21,00,54,17.80
2015,07,21,00,55,17.80
2015,07,21,00,56,17.80
2015,07,21,00,57,17.80
2015,07,21,00,58,17.80
2015,07,21,00,59,17.80
2015,07,21,01,00,17.80
2015,07,21,01,01,17.80
2015,07,21,01,02,17.80
2015,07,21,01,03,17.80
2015,07,21,01,04,17.80
2015,07,21,01,05,17.80
2015,07,21,01,06,17.80
2015,07,21,01,07,17.80
2015,07,21,01,08,17.80
2015,07,21,01,09,17.80
2015,07,21,01,10,17.90
2015,07,21,01,11,17.90
2015,07,21,01,12,17.90
2015,07,21,01,13,17.90
2015,07,21,01,14,17.90
2015,07,21,01,15,17.90
2015,07,21,01,16,17.90
2015,07,21,01,17,17.90
2015,07,21,01,18,17.90
2015,07,21,01,19,17.90
2015,07,21,01,20,17.90
2015,07,21,01,21,17.90
2015,07,21,01,22,17.90
2015,07,21,01,23,17.90
2015,07,21,01,24,17.80
2015,07,21,01,25,17.80
2015,07,21,01,26,17.80
2015,07,21,01,27,17.80
2015,07,21,01,28,17.80
2015,07,21,01,29,17.80
2015,07,21,01,30,17.80
2015,07,21,01,31,17.80
2015,07,21,01,32,17.80
2015,07,21,01,33,17.80
2015,07,21,01,34,17.80
2015,07,21,01,35,17.70
2015,07,21,01,36,17.70
2015,07,21,01,37,17.70
2015,07,21,01,38,17.70
2015,07,21,01,39,17.70
2015,07,21,01,40,17.70
2015,07,21,01,41,17.60
2015,07,21,01,42,17.60
2015,07,21,01,43,17.60
2015,07,21,01,44,17.60
2015,07,21,01,45,17.60
2015,07,21,01,46,17.50
2015,07,21,01,47,17.50
2015,07,21,01,48,17.50
2015,07,21,01,49,17.40
2015,07,21,01,50,17.40
2015,07,21,01,51,17.40
2015,07,21,01,52,17.30
2015,07,21,01,53,17.30
2015,07,21,01,54,17.30
2015,07,21,01,55,17.30
2015,07,21,01,56,17.30
2015,07,21,01,57,17.30
2015,07,21,01,58,17.30
2015,07,21,01,59,17.30
2015,07,21,02,00,17.20
2015,07,21,02,01,17.20
2015,07,21,02,02,17.20
2015,07,21,02,03,17.20
2015,07,21,02,04,17.20
2015,07,21,02,05,17.20
2015,07,21,02,06,17.20
2015,07,21,02,07,17.20
2015,07,21,02,08,17.20
2015,07,21,02,09,17.10
2015,07,21,02,10,17.10
2015,07,21,02,11,17.10
2015,07,21,02,12,17.10
2015,07,21,02,13,17.10
2015,07,21,02,14,17.10
2015,07,21,02,15,17.10
2015,07,21,02,16,17.10
2015,07,21,02,17,17.10
2015,07,21,02,18,17.10
2015,07,21,02,19,17.10
2015,07,21,02,20,17.10
2015,07,21,02,21,17.00
2015,07,21,02,22,17.00
2015,07,21,02,23,17.00
2015,07,21,02,24,17.00
2015,07,21,02,25,17.00
2015,07,21,02,26,16.90
2015,07,21,02,27,16.90
2015,07,21,02,28,16.90
2015,07,21,02,29,16.90
2015,07,21,02,30,16.90
2015,07,21,02,31,16.90
2015,07,21,02,32,16.90
2015,07,21,02,33,16.90
2015,07,21,02,34,16.90
2015,07,21,02,35,16.90
2015,07,21,02,36,16.90
2015,07,21,02,37,16.90
2015,07,21,02,38,16.90
2015,07,21,02,39,16.90
2015,07,21,02,40,16.90
2015,07,21,02,41,16.90
2015,07,21,02,42,16.80
2015,07,21,02,43,16.80
2015,07,21,02,44,16.90
2015,07,21,02,45,16.90
2015,07,21,02,46,16.90
2015,07,21,02,47,16.80
2015,07,21,02,48,16.80
2015,07,21,02,49,16.90
2015,07,21,02,50,16.90
2015,07,21,02,51,16.90
2015,07,21,02,52,16.90
2015,07,21,02,53,16.90
2015,07,21,02,54,16.90
2015,07,21,02,55,16.80
2015,07,21,02,56,16.90
2015,07,21,02,57,16.90
2015,07,21,02,58,16.90
2015,07,21,02,59,16.90
2015,07,21,03,00,16.90
2015,07,21,03,01,16.90
2015,07,21,03,02,16.90
2015,07,21,03,06,16.90
2015,07,21,03,07,16.80
2015,07,21,03,08,16.80
2015,07,21,03,09,16.80
2015,07,21,03,10,16.80
2015,07,21,03,11,16.90
2015,07,21,03,12,16.90
2015,07,21,03,13,16.90
2015,07,21,03,14,16.90
2015,07,21,03,15,16.90
2015,07,21,03,16,16.90
2015,07,21,03,17,16.90
2015,07,21,03,18,16.90
2015,07,21,03,19,16.90
2015,07,21,03,20,16.90
2015,07,21,03,21,16.90
2015,07,21,03,22,16.90
2015,07,21,03,23,16.90
2015,07,21,03,24,16.90
2015,07,21,03,25,16.90
2015,07,21,03,26,16.90
2015,07,21,03,27,17.00
2015,07,21,03,28,17.10
2015,07,21,03,29,17.10
2015,07,21,03,30,17.10
2015,07,21,03,31,17.10
2015,07,21,03,32,17.20
2015,07,21,03,33,17.20
2015,07,21,03,34,17.20
2015,07,21,03,35,17.20
2015,07,21,03,36,17.20
2015,07,21,03,37,17.20
2015,07,21,03,38,17.20
2015,07,21,03,39,17.10
2015,07,21,03,40,17.10
2015,07,21,03,41,17.10
2015,07,21,03,42,17.00
2015,07,21,03,43,17.00
2015,07,21,03,44,16.90
2015,07,21,03,45,16.90
2015,07,21,03,46,16.90
2015,07,21,03,47,16.90
2015,07,21,03,48,16.80
2015,07,21,03,49,16.80
2015,07,21,03,50,16.80
2015,07,21,03,51,16.80
2015,07,21,03,52,16.70
2015,07,21,03,53,16.70
2015,07,21,03,54,16.70
2015,07,21,03,55,16.70
2015,07,21,03,56,16.70
2015,07,21,03,57,16.70
2015,07,21,03,58,16.70
2015,07,21,03,59,16.70
2015,07,21,04,00,16.60
2015,07,21,04,01,16.60
2015,07,21,04,02,16.60
2015,07,21,04,03,16.60
2015,07,21,04,04,16.60
2015,07,21,04,05,16.60
2015,07,21,04,06,16.60
2015,07,21,04,07,16.60
2015,07,21,04,08,16.60
2015,07,21,04,09,16.60
2015,07,21,04,10,16.50
2015,07,21,04,11,16.50
2015,07,21,04,12,16.50
2015,07,21,04,13,16.50
2015,07,21,04,14,16.40
2015,07,21,04,15,16.40
2015,07,21,04,16,16.40
2015,07,21,04,17,16.40
2015,07,21,04,18,16.40
2015,07,21,04,19,16.40
2015,07,21,04,20,16.40
2015,07,21,04,21,16.30
2015,07,21,04,22,16.30
2015,07,21,04,23,16.30
2015,07,21,04,24,16.30
2015,07,21,04,25,16.30
2015,07,21,04,26,16.30
2015,07,21,04,27,16.30
2015,07,21,04,28,16.20
2015,07,21,04,29,16.20
2015,07,21,04,30,16.20
2015,07,21,04,31,16.20
2015,07,21,04,32,16.20
2015,07,21,04,33,16.20
2015,07,21,04,34,16.20
2015,07,21,04,35,16.10
2015,07,21,04,36,16.10
2015,07,21,04,37,16.10
2015,07,21,04,38,16.10
2015,07,21,04,39,16.10
2015,07,21,04,40,16.10
2015,07,21,04,41,16.10
2015,07,21,04,42,16.10
2015,07,21,04,43,16.10
2015,07,21,04,44,16.10
2015,07,21,04,45,16.10
2015,07,21,04,46,16.10
2015,07,21,04,47,16.10
2015,07,21,04,48,16.10
2015,07,21,04,49,16.10
2015,07,21,04,50,16.10
2015,07,21,04,51,16.00
2015,07,21,04,52,16.00
2015,07,21,04,53,16.00
2015,07,21,04,54,16.00
2015,07,21,04,55,16.00
2015,07,21,04,56,16.00
2015,07,21,04,57,15.90
2015,07,21,04,58,16.00
2015,07,21,04,59,16.00
2015,07,21,05,00,16.00
2015,07,21,05,01,16.00
2015,07,21,05,02,16.00
2015,07,21,05,03,16.00
2015,07,21,05,04,16.00
2015,07,21,05,05,16.00
2015,07,21,05,06,16.00
2015,07,21,05,07,16.00
2015,07,21,05,08,15.90
2015,07,21,05,09,15.90
2015,07,21,05,10,15.90
2015,07,21,05,11,15.90
2015,07,21,05,12,15.90
2015,07,21,05,13,15.90
2015,07,21,05,14,15.90
2015,07,21,05,15,15.90
2015,07,21,05,16,15.80
2015,07,21,05,17,15.80
2015,07,21,05,18,15.80
2015,07,21,05,19,15.80
2015,07,21,05,20,15.80
2015,07,21,05,21,15.80
2015,07,21,05,22,15.80
2015,07,21,05,23,15.80
2015,07,21,05,24,15.80
2015,07,21,05,25,15.70
2015,07,21,05,26,15.70
2015,07,21,05,27,15.70
2015,07,21,05,28,15.70
2015,07,21,05,29,15.70
2015,07,21,05,30,15.70
2015,07,21,05,31,15.70
2015,07,21,05,32,15.80
2015,07,21,05,33,15.80
2015,07,21,05,34,15.80
2015,07,21,05,35,15.80
2015,07,21,05,36,15.80
2015,07,21,05,37,15.80
2015,07,21,05,38,15.80
2015,07,21,05,39,15.80
2015,07,21,05,40,15.80
2015,07,21,05,41,15.80
2015,07,21,05,42,15.80
2015,07,21,05,43,15.80
2015,07,21,05,44,15.80
2015,07,21,05,45,15.80
2015,07,21,05,46,15.80
2015,07,21,05,47,15.80
2015,07,21,05,48,15.80
2015,07,21,05,49,15.70
2015,07,21,05,50,15.70
2015,07,21,05,51,15.70
2015,07,21,05,52,15.70
2015,07,21,05,53,15.70
2015,07,21,05,54,15.70
2015,07,21,05,55,15.70
2015,07,21,05,56,15.70
2015,07,21,05,57,15.70
2015,07,21,05,58,15.70
2015,07,21,05,59,15.70
2015,07,21,06,00,15.70
2015,07,21,06,01,15.70
2015,07,21,06,02,15.70
2015,07,21,06,03,15.70
2015,07,21,06,04,15.70
2015,07,21,06,05,15.70
2015,07,21,06,06,15.70
2015,07,21,06,07,15.70
2015,07,21,06,08,15.70
2015,07,21,06,09,15.70
2015,07,21,06,10,15.70
2015,07,21,06,11,15.70
2015,07,21,06,12,15.70
2015,07,21,06,13,15.70
2015,07,21,06,14,15.70
2015,07,21,06,15,15.70
2015,07,21,06,16,15.70
2015,07,21,06,17,15.70
2015,07,21,06,18,15.70
2015,07,21,06,19,15.70
2015,07,21,06,20,15.70
2015,07,21,06,21,15.70
2015,07,21,06,22,15.70
2015,07,21,06,23,15.70
2015,07,21,06,24,15.70
2015,07,21,06,25,15.70
2015,07,21,06,26,15.70
2015,07,21,06,27,15.70
2015,07,21,06,28,15.70
2015,07,21,06,29,15.70
2015,07,21,06,30,15.70
2015,07,21,06,31,15.70
2015,07,21,06,32,15.80
2015,07,21,06,33,15.80
2015,07,21,06,34,15.80
2015,07,21,06,35,15.80
2015,07,21,06,36,15.90
2015,07,21,06,37,15.90
2015,07,21,06,38,16.00
2015,07,21,06,39,16.00
2015,07,21,06,40,16.10
2015,07,21,06,41,16.20
2015,07,21,06,42,16.20
2015,07,21,06,43,16.20
2015,07,21,06,44,16.30
2015,07,21,06,45,16.30
2015,07,21,06,46,16.30
2015,07,21,06,47,16.30
2015,07,21,06,48,16.30
2015,07,21,06,49,16.40
2015,07,21,06,50,16.40
2015,07,21,06,51,16.40
2015,07,21,06,52,16.50
2015,07,21,06,53,16.50
2015,07,21,06,54,16.50
2015,07,21,06,55,16.60
2015,07,21,06,56,16.60
2015,07,21,06,57,16.60
2015,07,21,06,58,16.60
2015,07,21,06,59,16.70
2015,07,21,07,00,16.70
2015,07,21,07,01,16.70
2015,07,21,07,02,16.70
2015,07,21,07,03,16.70
2015,07,21,07,04,16.80
2015,07,21,07,05,16.80
2015,07,21,07,06,16.80
2015,07,21,07,07,16.80
2015,07,21,07,08,16.80
2015,07,21,07,09,16.80
2015,07,21,07,10,16.90
2015,07,21,07,11,16.90
2015,07,21,07,12,16.90
2015,07,21,07,13,16.90
2015,07,21,07,14,16.90
2015,07,21,07,15,16.90
2015,07,21,07,16,17.00
2015,07,21,07,17,17.00
2015,07,21,07,18,17.10
2015,07,21,07,19,17.10
2015,07,21,07,20,17.20
2015,07,21,07,21,17.20
2015,07,21,07,22,17.20
2015,07,21,07,23,17.30
2015,07,21,07,24,17.30
2015,07,21,07,25,17.30
2015,07,21,07,26,17.30
2015,07,21,07,27,17.30
2015,07,21,07,28,17.30
2015,07,21,07,29,17.40
2015,07,21,07,30,17.40
2015,07,21,07,31,17.40
2015,07,21,07,32,17.40
2015,07,21,07,33,17.40
2015,07,21,07,34,17.40
2015,07,21,07,35,17.40
2015,07,21,07,36,17.50
2015,07,21,07,37,17.50
2015,07,21,07,38,17.60
2015,07,21,07,39,17.60
2015,07,21,07,40,17.60
2015,07,21,07,41,17.60
2015,07,21,07,42,17.70
2015,07,21,07,43,17.70
2015,07,21,07,44,17.70
2015,07,21,07,45,17.80
2015,07,21,07,46,17.80
2015,07,21,07,47,17.80
2015,07,21,07,48,17.90
2015,07,21,07,49,17.90
2015,07,21,07,50,17.90
2015,07,21,07,51,18.00
2015,07,21,07,52,18.00
2015,07,21,07,53,18.10
2015,07,21,07,54,18.10
2015,07,21,07,55,18.20
2015,07,21,07,56,18.20
2015,07,21,07,57,18.20
2015,07,21,07,58,18.20
2015,07,21,07,59,18.20
2015,07,21,08,00,18.30
2015,07,21,08,01,18.30
2015,07,21,08,02,18.30
2015,07,21,08,03,18.30
2015,07,21,08,04,18.30
2015,07,21,08,05,18.40
2015,07,21,08,06,18.30
2015,07,21,08,07,18.30
2015,07,21,08,08,18.30
2015,07,21,08,09,18.20
2015,07,21,08,10,18.20
2015,07,21,08,11,18.20
2015,07,21,08,12,18.10
2015,07,21,08,13,18.10
2015,07,21,08,14,18.00
2015,07,21,08,15,18.10
2015,07,21,08,16,18.00
2015,07,21,08,17,18.10
2015,07,21,08,18,18.00
2015,07,21,08,19,18.00
2015,07,21,08,20,18.00
2015,07,21,08,21,17.90
2015,07,21,08,22,17.90
2015,07,21,08,23,17.90
2015,07,21,08,24,17.90
2015,07,21,08,25,18.00
2015,07,21,08,26,18.00
2015,07,21,08,27,18.00
2015,07,21,08,28,18.00
2015,07,21,08,29,18.00
2015,07,21,08,30,17.90
2015,07,21,08,31,17.90
2015,07,21,08,32,17.90
2015,07,21,08,33,17.80
2015,07,21,08,34,17.80
2015,07,21,08,35,17.70
2015,07,21,08,36,17.60
2015,07,21,08,37,17.60
2015,07,21,08,38,17.50
2015,07,21,08,39,17.50
2015,07,21,08,40,17.40
2015,07,21,08,41,17.40
2015,07,21,08,42,17.40
2015,07,21,08,43,17.40
2015,07,21,08,44,17.40
2015,07,21,08,45,17.30
2015,07,21,08,46,17.30
2015,07,21,08,47,17.30
2015,07,21,08,48,17.20
2015,07,21,08,49,17.20
2015,07,21,08,50,17.20
2015,07,21,08,51,17.20
2015,07,21,08,52,17.20
2015,07,21,08,53,17.20
2015,07,21,08,54,17.20
2015,07,21,08,55,17.20
2015,07,21,08,56,17.20
2015,07,21,08,57,17.20
2015,07,21,08,58,17.20
2015,07,21,08,59,17.20
2015,07,21,09,00,17.20
2015,07,21,09,01,17.20
2015,07,21,09,02,17.30
2015,07,21,09,03,17.30
2015,07,21,09,04,17.30
2015,07,21,09,05,17.30
2015,07,21,09,06,17.30
2015,07,21,09,07,17.30
2015,07,21,09,08,17.30
2015,07,21,09,09,17.40
2015,07,21,09,10,17.40
2015,07,21,09,11,17.40
2015,07,21,09,12,17.40
2015,07,21,09,13,17.40
2015,07,21,09,14,17.40
2015,07,21,09,15,17.40
2015,07,21,09,16,17.40
2015,07,21,09,17,17.40
2015,07,21,09,18,17.40
2015,07,21,09,19,17.40
2015,07,21,09,20,17.50
2015,07,21,09,21,17.50
2015,07,21,09,22,17.60
2015,07,21,09,23,17.60
2015,07,21,09,24,17.60
2015,07,21,09,25,17.60
2015,07,21,09,26,17.70
2015,07,21,09,27,17.70
2015,07,21,09,28,17.70
2015,07,21,09,29,17.70
2015,07,21,09,30,17.70
2015,07,21,09,31,17.60
2015,07,21,09,32,17.70
2015,07,21,09,33,17.70
2015,07,21,09,34,17.80
2015,07,21,09,35,17.90
2015,07,21,09,36,18.00
2015,07,21,09,37,18.20
2015,07,21,09,38,18.40
2015,07,21,09,39,18.50
2015,07,21,09,40,18.60
2015,07,21,09,41,18.70
2015,07,21,09,42,18.80
2015,07,21,09,43,19.00
2015,07,21,09,44,19.10
2015,07,21,09,45,19.30
2015,07,21,09,46,19.50
2015,07,21,09,47,19.50
2015,07,21,09,48,19.50
2015,07,21,09,49,19.40
2015,07,21,09,50,19.30
2015,07,21,09,51,19.20
2015,07,21,09,52,19.30
2015,07,21,09,53,19.40
2015,07,21,09,54,19.50
2015,07,21,09,55,19.50
2015,07,21,09,56,19.50
2015,07,21,09,57,19.50
2015,07,21,09,58,19.50
2015,07,21,09,59,19.50
2015,07,21,10,00,19.40
2015,07,21,10,01,19.20
2015,07,21,10,02,19.00
2015,07,21,10,03,19.00
2015,07,21,10,04,19.00
2015,07,21,10,05,19.10
2015,07,21,10,06,19.20
2015,07,21,10,07,19.30
2015,07,21,10,08,19.30
2015,07,21,10,09,19.30
2015,07,21,10,10,19.30
2015,07,21,10,11,19.30
2015,07,21,10,12,19.40
2015,07,21,10,13,19.50
2015,07,21,10,14,19.60
2015,07,21,10,15,19.60
2015,07,21,10,16,19.80
2015,07,21,10,17,19.90
2015,07,21,10,18,19.90
2015,07,21,10,19,19.90
2015,07,21,10,20,19.80
2015,07,21,10,21,19.60
2015,07,21,10,22,19.40
2015,07,21,10,23,19.40
2015,07,21,10,24,19.40
2015,07,21,10,25,19.30
2015,07,21,10,26,19.30
2015,07,21,10,27,19.40
2015,07,21,10,28,19.40
2015,07,21,10,29,19.50
2015,07,21,10,30,19.50
2015,07,21,10,31,19.50
2015,07,21,10,32,19.40
2015,07,21,10,33,19.40
2015,07,21,10,34,19.40
2015,07,21,10,35,19.40
2015,07,21,10,36,19.30
2015,07,21,10,37,19.30
2015,07,21,10,38,19.20
2015,07,21,10,39,19.00
2015,07,21,10,40,18.90
2015,07,21,10,41,18.90
2015,07,21,10,42,18.90
2015,07,21,10,43,18.90
2015,07,21,10,44,18.80
2015,07,21,10,45,18.80
2015,07,21,10,46,18.80
2015,07,21,10,47,18.80
2015,07,21,10,48,18.80
2015,07,21,10,49,18.80
2015,07,21,10,50,18.80
2015,07,21,10,51,18.90
2015,07,21,10,52,18.90
2015,07,21,10,53,18.90
2015,07,21,10,54,18.90
2015,07,21,10,55,18.80
2015,07,21,10,56,18.80
2015,07,21,10,57,18.80
2015,07,21,10,58,18.80
2015,07,21,10,59,18.80
2015,07,21,11,00,18.80
2015,07,21,11,01,18.80
2015,07,21,11,02,18.80
2015,07,21,11,03,18.70
2015,07,21,11,04,18.70
2015,07,21,11,05,18.70
2015,07,21,11,06,18.70
2015,07,21,11,07,18.70
2015,07,21,11,08,18.70
2015,07,21,11,09,18.70
2015,07,21,11,10,18.70
2015,07,21,11,11,18.80
2015,07,21,11,12,18.70
2015,07,21,11,13,18.70
2015,07,21,11,14,18.70
2015,07,21,11,15,18.70
2015,07,21,11,16,18.60
2015,07,21,11,17,18.60
2015,07,21,11,18,18.50
2015,07,21,11,19,18.40
2015,07,21,11,20,18.30
2015,07,21,11,21,18.30
2015,07,21,11,22,18.30
2015,07,21,11,23,18.30
2015,07,21,11,24,18.30
2015,07,21,11,25,18.30
2015,07,21,11,26,18.20
2015,07,21,11,27,18.20
2015,07,21,11,28,18.20
2015,07,21,11,29,18.20
2015,07,21,11,30,18.20
2015,07,21,11,31,18.20
2015,07,21,11,32,18.30
2015,07,21,11,33,18.30
2015,07,21,11,34,18.50
2015,07,21,11,35,18.60
2015,07,21,11,36,18.80
2015,07,21,11,37,19.00
2015,07,21,11,38,19.00
2015,07,21,11,39,19.20
2015,07,21,11,40,19.30
2015,07,21,11,41,19.40
2015,07,21,11,42,19.50
2015,07,21,11,43,19.60
2015,07,21,11,44,19.60
2015,07,21,11,45,19.60
2015,07,21,11,46,19.70
2015,07,21,11,47,19.80
2015,07,21,11,48,19.90
2015,07,21,11,49,20.00
2015,07,21,11,50,20.20
2015,07,21,11,51,20.20
2015,07,21,11,52,20.30
2015,07,21,11,53,20.40
2015,07,21,11,54,20.40
2015,07,21,11,55,20.40
2015,07,21,11,56,20.20
2015,07,21,11,57,20.20
2015,07,21,11,58,20.10
2015,07,21,11,59,20.10
2015,07,21,12,00,20.10
2015,07,21,12,01,20.20
2015,07,21,12,02,20.30
2015,07,21,12,03,20.30
2015,07,21,12,04,20.30
2015,07,21,12,05,20.30
2015,07,21,12,06,20.30
2015,07,21,12,07,20.30
2015,07,21,12,08,20.10
2015,07,21,12,09,20.00
2015,07,21,12,10,19.80
2015,07,21,12,11,19.70
2015,07,21,12,12,19.60
2015,07,21,12,13,19.40
2015,07,21,12,14,19.40
2015,07,21,12,15,19.50
2015,07,21,12,16,19.50
2015,07,21,12,17,19.60
2015,07,21,12,18,19.60
2015,07,21,12,19,19.60
2015,07,21,12,20,19.70
2015,07,21,12,21,19.70
2015,07,21,12,22,19.80
2015,07,21,12,23,19.90
2015,07,21,12,24,19.90
2015,07,21,12,25,20.00
2015,07,21,12,26,19.90
2015,07,21,12,27,19.80
2015,07,21,12,28,19.70
2015,07,21,12,29,19.70
2015,07,21,12,30,19.70
2015,07,21,12,31,19.70
2015,07,21,12,32,19.70
2015,07,21,12,33,19.80
2015,07,21,12,34,19.80
2015,07,21,12,35,19.80
2015,07,21,12,36,19.80
2015,07,21,12,37,19.60
2015,07,21,12,38,19.50
2015,07,21,12,39,19.40
2015,07,21,12,40,19.50
2015,07,21,12,41,19.60
2015,07,21,12,42,19.70
2015,07,21,12,43,19.70
2015,07,21,12,44,19.80
2015,07,21,12,45,19.90
2015,07,21,12,46,19.90
2015,07,21,12,47,19.90
2015,07,21,12,48,19.90
2015,07,21,12,49,19.90
2015,07,21,12,50,20.00
2015,07,21,12,51,20.00
2015,07,21,12,52,20.00
2015,07,21,12,53,20.10
2015,07,21,12,54,20.20
2015,07,21,12,55,20.20
2015,07,21,12,56,20.10
2015,07,21,12,57,20.10
2015,07,21,12,58,20.10
2015,07,21,12,59,20.10
2015,07,21,13,00,20.10
2015,07,21,13,01,20.10
2015,07,21,13,02,20.20
2015,07,21,13,03,20.20
2015,07,21,13,04,20.10
2015,07,21,13,05,20.00
2015,07,21,13,06,19.90
2015,07,21,13,07,19.80
2015,07,21,13,08,19.70
2015,07,21,13,09,19.60
2015,07,21,13,10,19.50
2015,07,21,13,11,19.50
2015,07,21,13,12,19.40
2015,07,21,13,13,19.40
2015,07,21,13,14,19.50
2015,07,21,13,15,19.60
2015,07,21,13,16,19.70
2015,07,21,13,17,19.80
2015,07,21,13,18,19.80
2015,07,21,13,19,19.90
2015,07,21,13,20,19.90
2015,07,21,13,21,20.00
2015,07,21,13,22,20.00
2015,07,21,13,23,20.00
2015,07,21,13,24,20.00
2015,07,21,13,25,19.90
2015,07,21,13,26,19.90
2015,07,21,13,27,20.00
2015,07,21,13,28,20.00
2015,07,21,13,29,20.10
2015,07,21,13,30,20.10
2015,07,21,13,31,20.10
2015,07,21,13,32,20.00
2015,07,21,13,33,19.90
2015,07,21,13,34,19.90
2015,07,21,13,35,19.90
2015,07,21,13,36,19.80
2015,07,21,13,37,19.90
2015,07,21,13,38,19.90
2015,07,21,13,39,19.90
2015,07,21,13,40,20.00
2015,07,21,13,41,20.00
2015,07,21,13,42,20.10
2015,07,21,13,43,20.10
2015,07,21,13,44,20.20
2015,07,21,13,45,20.20
2015,07,21,13,46,20.30
2015,07,21,13,47,20.30
2015,07,21,13,48,20.20
2015,07,21,13,49,20.20
2015,07,21,13,50,20.10
2015,07,21,13,51,20.10
2015,07,21,13,52,20.00
2015,07,21,13,53,20.10
2015,07,21,13,54,20.10
2015,07,21,13,55,20.00
2015,07,21,13,56,20.10
2015,07,21,13,57,20.00
2015,07,21,13,58,20.00
2015,07,21,13,59,19.90
2015,07,21,14,00,19.80
2015,07,21,14,01,19.80
2015,07,21,14,02,19.80
2015,07,21,14,03,19.70
2015,07,21,14,04,19.70
2015,07,21,14,05,19.50
2015,07,21,14,06,19.50
2015,07,21,14,07,19.40
2015,07,21,14,08,19.40
2015,07,21,14,09,19.40
2015,07,21,14,10,19.40
2015,07,21,14,11,19.30
2015,07,21,14,12,19.30
2015,07,21,14,13,19.30
2015,07,21,14,14,19.20
2015,07,21,14,15,19.20
2015,07,21,14,16,19.20
2015,07,21,14,17,19.10
2015,07,21,14,18,19.10
2015,07,21,14,19,19.20
2015,07,21,14,20,19.20
2015,07,21,14,21,19.30
2015,07,21,14,22,19.30
2015,07,21,14,23,19.40
2015,07,21,14,24,19.50
2015,07,21,14,25,19.60
2015,07,21,14,26,19.70
2015,07,21,14,27,19.70
2015,07,21,14,28,19.70
2015,07,21,14,29,19.80
2015,07,21,14,30,19.90
2015,07,21,14,31,19.90
2015,07,21,14,32,20.00
2015,07,21,14,33,20.10
2015,07,21,14,34,20.10
2015,07,21,14,35,20.20
2015,07,21,14,36,20.20
2015,07,21,14,37,20.30
2015,07,21,14,38,20.40
2015,07,21,14,39,20.40
2015,07,21,14,40,20.40
2015,07,21,14,41,20.40
2015,07,21,14,42,20.40
2015,07,21,14,43,20.40
2015,07,21,14,44,20.30
2015,07,21,14,45,20.20
2015,07,21,14,46,20.20
2015,07,21,14,47,20.10
2015,07,21,14,48,20.10
2015,07,21,14,49,20.10
2015,07,21,14,50,20.10
2015,07,21,14,51,20.00
2015,07,21,14,52,20.00
2015,07,21,14,53,20.00
2015,07,21,14,54,20.00
2015,07,21,14,55,20.00
2015,07,21,14,56,20.00
2015,07,21,14,57,20.00
2015,07,21,14,58,20.00
2015,07,21,14,59,20.00
2015,07,21,15,00,20.10
2015,07,21,15,01,20.10
2015,07,21,15,02,20.20
2015,07,21,15,03,20.30
2015,07,21,15,04,20.30
2015,07,21,15,05,20.40
2015,07,21,15,06,20.50
2015,07,21,15,07,20.60
2015,07,21,15,08,20.70
2015,07,21,15,09,20.80
2015,07,21,15,10,20.80
2015,07,21,15,11,20.90
2015,07,21,15,12,21.00
2015,07,21,15,13,21.00
2015,07,21,15,14,21.10
2015,07,21,15,15,21.10
2015,07,21,15,16,21.10
2015,07,21,15,17,21.20
2015,07,21,15,18,21.20
2015,07,21,15,19,21.10
2015,07,21,15,20,21.20
2015,07,21,15,21,21.20
2015,07,21,15,22,21.30
2015,07,21,15,23,21.20
2015,07,21,15,24,21.20
2015,07,21,15,25,21.20
2015,07,21,15,26,21.10
2015,07,21,15,27,21.10
2015,07,21,15,28,21.10
2015,07,21,15,29,21.00
2015,07,21,15,30,21.00
2015,07,21,15,31,20.80
2015,07,21,15,32,20.80
2015,07,21,15,33,20.80
2015,07,21,15,34,20.70
2015,07,21,15,35,20.60
2015,07,21,15,36,20.60
2015,07,21,15,37,20.60
2015,07,21,15,38,20.60
2015,07,21,15,39,20.70
2015,07,21,15,40,20.70
2015,07,21,15,41,20.70
2015,07,21,15,42,20.80
2015,07,21,15,43,20.80
2015,07,21,15,44,20.80
2015,07,21,15,45,20.70
2015,07,21,15,46,20.60
2015,07,21,15,47,20.50
2015,07,21,15,48,20.40
2015,07,21,15,49,20.20
2015,07,21,15,50,20.20
2015,07,21,15,51,20.10
2015,07,21,15,52,20.10
2015,07,21,15,53,20.10
2015,07,21,15,54,20.10
2015,07,21,15,55,20.10
2015,07,21,15,56,20.10
2015,07,21,15,57,20.10
2015,07,21,15,58,20.10
2015,07,21,15,59,20.20
2015,07,21,16,00,20.20
2015,07,21,16,01,20.20
2015,07,21,16,02,20.20
2015,07,21,16,03,20.20
2015,07,21,16,04,20.20
2015,07,21,16,05,20.10
2015,07,21,16,06,20.10
2015,07,21,16,07,20.00
2015,07,21,16,08,20.00
2015,07,21,16,09,20.00
2015,07,21,16,10,20.00
2015,07,21,16,11,20.00
2015,07,21,16,12,20.00
2015,07,21,16,13,20.00
2015,07,21,16,14,20.00
2015,07,21,16,15,20.10
2015,07,21,16,16,20.10
2015,07,21,16,17,20.00
2015,07,21,16,18,20.00
2015,07,21,16,19,20.00
2015,07,21,16,20,20.00
2015,07,21,16,21,20.10
2015,07,21,16,22,20.10
2015,07,21,16,23,20.20
2015,07,21,16,24,20.30
2015,07,21,16,25,20.40
2015,07,21,16,26,20.40
2015,07,21,16,27,20.50
2015,07,21,16,28,20.60
2015,07,21,16,29,20.60
2015,07,21,16,30,20.60
2015,07,21,16,31,20.60
2015,07,21,16,32,20.70
2015,07,21,16,33,20.70
2015,07,21,16,34,20.70
2015,07,21,16,35,20.70
2015,07,21,16,36,20.70
2015,07,21,16,37,20.70
2015,07,21,16,38,20.70
2015,07,21,16,39,20.80
2015,07,21,16,40,20.80
2015,07,21,16,41,20.90
2015,07,21,16,42,20.90
2015,07,21,16,43,20.90
2015,07,21,16,44,20.90
2015,07,21,16,45,21.00
2015,07,21,16,46,21.00
2015,07,21,16,47,21.00
2015,07,21,16,48,21.00
2015,07,21,16,49,21.00
2015,07,21,16,50,20.90
2015,07,21,16,51,20.90
2015,07,21,16,52,20.90
2015,07,21,16,53,20.90
2015,07,21,16,54,21.00
2015,07,21,16,55,21.10
2015,07,21,16,56,21.00
2015,07,21,16,57,21.10
2015,07,21,16,58,21.10
2015,07,21,16,59,21.10
2015,07,21,17,00,21.10
2015,07,21,17,01,21.10
2015,07,21,17,02,21.20
2015,07,21,17,03,21.20
2015,07,21,17,04,21.30
2015,07,21,17,05,21.30
2015,07,21,17,06,21.30
2015,07,21,17,07,21.30
2015,07,21,17,08,21.30
2015,07,21,17,09,21.30
2015,07,21,17,10,21.30
2015,07,21,17,11,21.20
2015,07,21,17,12,21.10
2015,07,21,17,13,21.00
2015,07,21,17,14,20.80
2015,07,21,17,15,20.70
2015,07,21,17,16,20.60
2015,07,21,17,17,20.50
2015,07,21,17,18,20.50
2015,07,21,17,19,20.50
2015,07,21,17,20,20.50
2015,07,21,17,21,20.50
2015,07,21,17,22,20.50